IRIDIUM 81 [-] (25468 NORAD) Tracking and Keplerian Element Data

This shows tracking and keplerian element data for the satellite.

Feedback or suggestion? Click here.




ElementValue
Catalog25468
NameIRIDIUM 81 [-]
Epoch Orbit4003
Epoch Day197.92636617
Epoch Year2018
RAAN213.5633
Inclination86.3733
Eccentricity0.0056394
Argument of Perigee240.5267
Mean Anonmoly119.2981
Mean Motion16.46064789
Decay Rate0.21163461
L11 25468U 98051B 18197.92636617 .21163461 -19968-5 17361-3 0 9998
L22 25468 86.3733 213.5633 0056394 240.5267 119.2981 16.46064789 40032

Live tracking and technical data element details for IRIDIUM 81 [-] (NORAD 25468). IRIDIUM 81 [-] can be tracked NOW for your location showing map with azimuth and elevation plus other details from your city location.

Track the satellite on the map from your city or location and see movement details for azimuth, elevation, latitude, longitude, range, height, and movement on the map or in text.







IsCatalogInMostPopularTable: catalog: 25468, numindb: 45
Update: records affected: 1



GetName: 25468 IRIDIUM 81 [-]

Hit Count: updated at: Sat, 15 Dec 2018 18:15:17 GMT